Temp
18 19 19 20 21 21 21 22 23 23 24 24 25 25 26 27 28 26 24 33 32 30 29 27 25 26 26 27 28 27 26 27 30 32 32 33 32 33 32 30 31 30 28 28 26
18 18 19 19 20 21 21 22 23 23 24 24 25 25 26 27 26 23 34 32 32 30 28 26 26 26 25 26 28 27 25 28 30 32 33 33 32 32 31 30 30 29 29 27 25
18 19 20 20 21 21 21 22 23 23 24 24 25 25 26 26 25 31 34 32 32 31 30 29 29 28 26 28 28 28 28 31 32 33 35 33 33 32 31 29 29 29 28 26 25
17 18 19 20 20 21 22 22 23 23 24 24 24 25 26 26 29 32 33 33 32 30 30 31 29 29 29 29 31 31 31 32 32 34 33 33 33 32 32 32 32 29 29 27 25
17 18 18 18 19 20 21 23 23 23 24 24 24 25 26 25 26 33 32 32 31 28 29 29 29 29 29 30 31 31 32 33 32 32 33 33 32 33 32 32 31 29 29 28 26
17 17 18 19 19 20 21 22 23 24 24 24 24 24 24 25 31 32 31 30 30 28 28 28 29 29 30 30 31 32 32 32 32 33 33 32 32 33 33 31 30 29 28 28 28
16 17 18 18 19 20 21 22 24 24 24 24 24 22 21 25 31 31 31 30 31 30 28 29 30 30 30 31 32 32 31 31 32 33 33 34 32 31 34 30 29 29 29 28 28
15 16 17 18 19 20 22 24 25 24 25 24 23 20 21 29 29 30 30 29 29 29 30 31 30 29 30 31 30 32 29 29 32 32 34 34 31 34 33 30 29 29 29 29 27
15 15 16 17 18 19 21 23 24 24 23 21 20 19 22 28 28 29 29 28 29 29 29 30 31 28 30 29 27 25 28 29 30 33 33 32 31 34 31 31 30 29 29 29 28
15 16 16 18 18 19 22 24 23 23 22 20 21 22 25 27 28 29 29 30 28 28 29 29 27 27 25 25 25 27 28 27 28 31 31 31 30 33 31 32 31 30 29 29 28
14 15 16 17 18 19 22 23 17 18 21 21 21 23 24 26 27 28 29 28 28 28 26 28 26 25 26 26 29 28 28 27 29 31 32 31 30 32 32 31 31 30 29 29 29
14 14 14 16 18 20 20 17 19 19 15 20 21 23 25 26 25 27 29 27 27 26 27 27 25 27 28 28 28 28 28 27 28 30 29 29 30 30 31 32 31 30 29 29 30
13 14 14 16 18 19 17 20 19 18 18 21 22 23 24 25 25 26 27 27 27 27 26 27 28 29 30 29 29 27 27 28 28 30 30 30 29 30 31 32 30 31 31 30 30
13 14 14 15 18 16 18 20 21 19 17 21 25 25 26 26 25 28 29 28 27 27 26 27 29 30 29 29 28 26 28 30 30 28 28 30 26 28 30 29 29 29 30 30 30
13 13 14 13 13 13 20 21 21 21 20 26 26 29 27 26 28 29 29 27 27 27 28 27 29 28 29 30 30 29 30 29 29 27 28 29 25 27 29 30 30 30 29 31 31
13 14 14 13 12 19 19 20 21 19 20 24 26 26 25 27 27 28 28 29 28 28 28 27 29 29 30 31 30 31 31 27 24 23 25 27 26 27 29 30 31 31 30 29 30
13 15 15 12 15 19 19 17 18 19 23 24 23 24 23 25 26 27 28 28 26 26 26 28 29 30 31 30 30 30 25 25 24 24 26 25 26 26 29 31 30 32 31 29 30
14 17 17 16 17 18 18 17 20 22 22 24 24 23 24 25 26 26 25 26 26 28 24 25 26 29 30 29 28 27 25 23 26 25 27 25 26 29 31 30 29 30 30 28 29
16 17 18 20 20 18 15 17 19 20 23 23 22 23 23 25 25 24 24 25 27 28 28 25 26 30 30 31 30 29 27 27 26 23 24 24 26 28 30 29 28 28 28 28 28
14 13 17 20 20 18 15 17 18 20 23 23 22 24 22 24 24 22 24 26 26 28 28 28 26 28 30 31 30 29 29 28 24 27 26 25 26 26 28 28 26 28 28 27 26
14 11 19 19 19 14 16 15 19 21 22 22 22 22 23 24 24 24 24 26 27 27 26 26 23 26 29 28 28 28 28 27 24 22 24 24 25 25 27 26 25 24 24 23 23
10 14 17 18 16 11 16 18 20 22 23 22 23 22 23 24 24 25 25 26 27 26 26 26 21 24 27 29 30 29 28 28 26 25 21 22 25 26 26 26 25 25 25 24 23
7 8 18 20 16 15 16 19 21 22 23 24 24 24 24 25 24 24 24 27 27 26 26 26 22 22 24 27 28 30 30 27 23 21 23 25 26 24 25 26 26 25 25 24 24
8 13 13 12 12 18 18 18 20 23 23 22 23 22 21 23 22 23 22 25 26 26 24 23 21 23 23 25 26 24 28 28 25 23 23 24 26 27 25 24 24 25 27 26 25
7 12 13 14 15 15 16 18 19 19 22 21 22 21 22 22 19 20 22 22 25 26 25 23 24 21 22 24 25 26 27 28 26 24 26 27 25 24 22 19 20 22 23 24 25
10 11 10 11 12 15 15 17 18 19 21 21 21 21 21 21 20 19 21 21 22 23 22 20 23 22 22 26 26 26 25 26 24 23 25 23 23 19 20 20 20 20 21 22 23
11 11 10 11 12 15 15 17 18 17 21 20 20 20 20 21 20 19 19 19 20 21 21 23 23 23 23 24 24 24 23 23 21 21 21 23 20 20 20 20 19 19 19 19 20
Height
813 810 807 804 800 796 792 789 785 782 779 775 773 769 765 760 755 751 747 741 740 745 749 752 759 762 765 766 764 763 789 797 781 772 760 742 747 733 730 739 738 739 740 738 751
812 809 805 802 798 794 791 787 784 781 777 774 771 767 763 757 752 746 738 737 738 741 747 750 756 761 768 766 764 774 794 781 756 750 751 737 745 737 740 742 742 740 738 740 750
812 808 804 800 796 792 788 784 781 778 775 771 768 765 762 756 753 739 736 736 738 740 744 747 749 755 768 760 759 762 776 753 745 736 729 734 738 734 739 750 735 738 739 739 747
814 810 805 800 795 790 785 781 778 774 771 769 766 763 760 757 773 737 737 739 739 741 744 746 749 758 762 764 747 762 750 745 736 729 727 729 725 737 732 723 715 724 729 731 742
814 810 806 801 796 790 784 779 775 771 767 765 763 761 759 761 749 738 737 737 739 741 741 743 749 750 759 753 749 755 745 736 731 727 726 720 726 732 729 717 716 722 731 735 734
813 808 803 799 794 788 782 777 771 767 763 761 760 760 761 767 737 735 735 736 738 739 740 741 741 738 744 746 749 737 738 735 728 723 723 729 728 725 718 718 725 725 728 732 734
812 807 801 795 789 783 776 771 767 762 758 756 755 757 759 744 734 734 732 733 736 735 735 735 737 740 738 745 732 735 747 736 727 725 731 718 739 738 713 717 723 726 724 726 730
812 807 802 795 789 781 773 765 759 754 750 749 750 753 753 732 732 730 729 727 729 731 731 730 733 736 740 731 739 745 754 770 733 725 719 721 755 713 707 714 723 722 723 722 727
813 807 801 794 786 779 770 763 755 751 748 748 751 752 750 729 728 725 728 728 726 727 728 730 730 737 739 755 767 767 778 769 752 724 731 736 747 711 704 706 713 715 718 719 726
810 804 797 791 784 775 766 759 754 752 751 750 751 757 736 731 728 724 725 723 724 722 729 734 738 749 755 768 793 777 773 768 763 732 733 739 740 716 711 711 708 711 714 716 720
808 803 796 789 782 774 767 759 763 762 754 759 753 752 739 724 728 721 721 722 722 725 744 732 750 762 754 750 747 754 759 764 747 730 739 741 740 720 710 712 710 713 713 712 710
807 801 795 788 782 775 773 773 780 785 771 744 739 737 729 728 735 713 715 726 728 741 732 741 752 737 733 740 747 752 760 762 746 729 744 741 740 720 712 704 703 705 706 706 703
806 800 794 786 780 777 776 776 776 776 778 746 735 732 726 724 727 712 712 716 725 736 738 740 733 724 731 739 749 753 761 756 757 737 735 740 747 730 708 701 702 701 697 697 696
805 799 794 785 781 779 775 773 771 769 792 763 739 729 721 720 725 695 692 709 721 733 734 735 720 727 733 739 741 766 736 738 743 756 770 735 782 742 716 714 706 701 694 690 690
803 799 794 791 787 782 776 771 767 768 811 747 738 721 719 726 711 696 687 703 720 725 727 736 725 731 736 729 729 740 725 737 739 752 754 749 775 746 721 717 704 690 689 680 674
800 796 791 787 784 776 773 768 768 797 807 761 742 741 735 721 713 701 697 692 698 717 719 725 707 713 715 711 717 713 724 741 755 765 782 751 761 749 733 715 699 684 677 674 671
795 789 786 782 777 774 772 771 801 810 770 768 763 749 749 737 723 712 712 715 728 744 743 725 719 703 702 720 716 723 753 782 790 792 783 748 753 735 706 694 691 680 672 668 665
790 783 778 774 774 774 774 787 802 785 781 760 759 753 754 738 729 723 726 730 716 718 745 749 752 715 701 715 729 736 752 790 792 795 769 754 760 721 686 677 675 669 663 666 667
787 779 774 773 773 775 782 807 799 789 771 772 765 765 762 744 741 735 737 729 720 716 736 749 743 701 700 698 708 726 748 731 759 771 781 762 734 699 683 678 674 667 664 665 665
789 783 775 774 775 776 794 803 792 777 769 767 779 764 774 756 753 751 745 724 726 713 710 721 741 711 701 693 696 712 711 743 760 770 779 766 749 740 703 692 682 673 666 665 668
792 791 777 777 778 787 803 803 785 769 767 769 769 769 764 758 752 751 748 729 720 715 712 715 733 727 702 714 719 718 725 730 742 764 775 779 756 706 696 690 688 688 677 677 679
798 799 781 782 793 805 799 789 774 764 754 759 755 758 758 751 753 747 747 736 718 720 727 717 741 745 720 692 688 698 712 716 748 757 769 765 746 691 689 683 680 685 685 680 683
808 804 782 782 803 803 793 782 773 768 760 755 756 750 747 749 758 748 743 724 718 720 727 718 744 759 739 711 699 702 694 706 727 748 752 758 740 696 687 680 681 681 686 685 684
809 804 792 788 793 790 792 787 780 761 758 757 756 752 757 755 752 754 750 729 722 719 715 718 747 751 764 741 720 726 703 698 713 744 745 744 721 701 697 690 685 676 666 673 680
811 806 804 805 797 797 795 788 783 780 759 758 757 760 762 765 768 763 749 740 723 718 720 727 741 747 735 724 720 708 703 695 709 720 728 716 719 714 713 719 714 697 692 673 672
811 809 806 806 802 797 795 791 785 779 768 767 766 760 757 765 767 769 755 750 745 726 732 735 743 740 740 713 714 713 704 700 705 713 712 720 723 718 712 709 710 707 704 700 693
807 807 808 804 803 799 796 790 785 782 767 765 765 763 760 756 752 747 744 741 737 739 737 736 739 740 748 725 720 731 722 719 721 718 718 729 731 721 718 718 717 717 714 717 718
Wind_Speed
26 26 25 25 25 25 27 26 25 25 25 25 24 24 26 27 28 15 7 8 9 16 15 20 13 6 9 3 4 4 2 3 4 4 6 2 5 5 2 12 5 9 6 9 27
27 27 28 29 28 27 28 27 26 26 26 25 25 25 25 28 21 9 2 6 9 19 23 19 8 9 3 5 4 5 4 7 8 9 9 9 6 7 6 7 4 4 5 28 32
27 28 28 29 29 30 31 29 28 27 26 26 26 25 24 21 4 6 7 11 14 17 16 17 9 10 4 6 6 6 5 8 12 11 7 11 10 3 8 5 7 15 17 21 27
27 28 29 29 30 31 32 31 31 30 28 26 25 24 22 6 4 2 6 5 14 16 11 7 5 4 5 7 6 3 7 9 8 3 7 8 11 6 11 10 13 16 25 21 23
28 29 30 31 31 32 32 32 31 32 30 27 24 19 8 4 9 15 17 9 11 19 12 6 7 6 5 4 3 7 6 5 9 9 7 4 13 7 13 4 14 17 20 20 21
31 32 33 33 34 34 35 33 32 32 31 28 24 13 1 5 5 8 4 2 8 13 6 9 6 8 4 4 3 4 6 7 7 15 5 6 6 7 10 9 14 19 21 19 20
33 35 37 38 38 39 39 37 34 34 31 28 20 2 4 17 5 8 20 16 19 17 5 11 12 3 1 4 4 3 8 8 7 2 2 8 3 10 9 16 19 20 19 20 18
33 35 35 37 39 40 41 40 35 34 28 19 5 8 7 20 19 24 27 21 20 15 18 17 9 4 4 5 5 2 4 5 4 10 6 8 9 19 13 21 19 19 19 19 20
31 33 35 37 41 44 41 35 22 13 14 6 4 3 8 11 8 15 10 12 11 25 16 11 3 6 3 1 4 5 4 5 12 7 1 5 13 18 8 23 21 20 19 18 15
31 34 37 38 40 45 30 20 12 5 14 4 1 2 6 6 10 24 27 20 8 3 3 4 4 3 3 4 7 7 5 5 7 6 8 12 12 9 9 14 19 20 17 17 17
31 35 38 39 43 33 32 9 6 6 6 4 14 8 23 34 26 6 7 14 4 4 7 6 5 7 11 10 4 5 4 7 9 10 2 12 12 20 10 12 16 13 15 17 21
32 35 38 40 42 14 28 5 7 4 12 10 20 17 30 16 9 23 12 8 5 10 5 5 9 8 8 5 6 5 5 9 8 14 6 10 14 11 6 19 15 17 17 20 20
32 35 38 39 29 11 18 4 17 15 3 9 5 5 7 8 9 23 8 6 5 5 7 16 10 8 5 6 6 6 6 11 10 10 6 7 7 7 6 6 8 12 17 19 21
32 34 36 41 8 25 11 18 24 5 5 7 7 6 3 4 6 12 17 10 6 9 9 13 10 9 5 8 7 8 9 12 11 2 9 5 7 6 6 8 7 11 17 20 20
32 33 34 36 19 9 10 22 22 3 3 3 6 5 9 5 8 5 6 7 16 9 4 8 9 9 13 20 6 13 4 8 9 6 1 3 2 7 4 9 10 10 13 20 24
33 32 38 19 14 12 17 21 4 5 4 6 5 12 12 3 5 7 4 3 6 5 3 9 8 8 12 10 9 8 3 6 5 2 3 6 7 5 5 8 6 6 10 10 15
34 35 36 16 5 9 17 4 5 3 5 7 6 13 8 10 9 4 1 4 5 5 3 5 6 4 6 3 2 4 6 5 5 3 8 7 3 8 4 7 12 15 13 8 12
38 34 24 15 8 6 6 5 2 2 5 5 6 11 5 11 8 8 6 3 3 4 2 4 8 6 3 8 9 6 9 6 5 6 10 1 6 7 8 11 9 13 13 6 8
35 25 10 3 4 4 5 4 5 4 4 7 10 4 6 6 2 9 8 8 7 2 2 4 8 5 3 6 9 6 5 7 4 2 2 4 8 10 7 12 8 12 10 11 10
25 14 10 1 9 4 5 3 3 4 6 2 3 2 6 7 8 9 10 5 11 6 1 6 2 3 5 2 6 7 6 1 1 2 4 5 5 6 11 10 10 4 9 4 5
8 4 7 7 4 5 2 5 6 8 5 4 6 4 7 4 2 5 6 7 7 9 6 2 5 8 3 6 8 0 3 2 6 4 5 4 7 7 6 6 6 7 9 10 11
5 3 5 7 3 1 1 4 6 9 5 7 5 7 5 3 4 2 3 4 9 5 6 3 4 3 8 10 8 7 9 6 5 6 3 3 7 3 5 3 10 11 8 13 14
2 3 3 3 0 2 5 5 5 5 7 6 4 3 3 2 4 2 6 7 12 6 5 4 3 4 10 8 7 3 5 6 6 3 6 5 8 4 5 7 7 16 10 10 12
2 3 4 4 1 2 4 5 5 7 5 4 4 5 6 4 3 4 7 5 13 8 1 5 3 4 4 9 6 7 6 8 8 4 3 6 8 2 5 6 5 2 19 18 14
1 2 2 3 3 3 2 3 6 6 3 6 5 5 2 3 7 6 4 8 11 2 4 3 2 4 8 14 9 10 13 9 7 6 5 4 5 5 4 8 9 10 15 8 12
1 2 4 3 4 4 3 4 3 7 4 7 4 9 4 4 4 6 2 3 6 7 7 3 3 2 6 11 3 9 17 8 8 3 3 6 4 6 7 12 13 15 18 17 10
1 1 3 3 4 1 2 3 4 8 2 6 5 3 4 4 6 12 10 9 9 4 2 3 3 8 13 9 6 4 10 7 3 6 5 2 2 4 13 14 14 17 22 22 21
Wind_Direction
8 6 2 358 356 353 351 348 346 343 341 338 338 338 337 331 326 306 246 245 195 167 165 169 186 168 156 193 229 146 23 263 246 259 248 251 244 161 179 136 180 191 161 166 161
5 2 359 355 352 349 347 344 341 340 339 336 335 335 337 330 324 262 235 209 177 160 158 159 177 161 181 202 203 187 154 231 221 222 260 201 209 187 151 164 197 173 123 131 147
2 358 355 351 348 345 342 339 337 336 334 334 334 333 335 329 323 249 15 183 190 180 178 174 157 152 202 192 204 199 215 249 270 263 305 215 213 237 142 211 207 176 164 146 150
1 358 354 350 345 341 338 335 333 331 329 330 331 331 332 333 299 356 16 2 193 192 191 178 175 199 206 201 217 219 245 252 276 247 325 220 181 204 194 217 172 169 170 155 162
360 357 354 349 345 340 335 331 328 326 323 324 327 330 346 351 254 284 301 292 197 184 203 182 194 187 209 213 259 209 239 246 278 297 251 182 198 178 238 62 148 156 169 181 167
358 355 351 349 346 341 335 329 323 320 317 317 319 323 57 266 252 294 306 208 204 204 213 197 213 213 251 239 172 258 270 278 288 298 269 158 211 160 227 144 153 167 177 187 184
355 353 349 347 345 340 334 327 322 319 312 309 308 256 173 238 255 303 282 278 273 237 209 224 228 284 156 304 269 276 335 329 292 311 219 235 111 215 225 160 165 187 183 189 194
350 349 345 342 343 340 332 328 324 318 310 305 265 169 231 271 278 274 270 277 253 241 236 256 216 218 216 246 6 347 50 343 280 334 334 47 291 308 207 168 183 188 195 192 198
346 344 341 342 342 340 332 332 333 17 29 71 115 161 268 300 276 275 285 268 260 243 242 251 215 187 314 218 3 358 233 259 304 152 341 70 302 302 199 178 189 188 198 200 197
342 342 340 341 342 338 339 346 353 51 17 42 49 9 292 298 318 312 306 290 228 206 161 196 180 207 92 117 228 210 201 247 247 306 0 323 285 292 215 204 188 199 198 199 199
342 342 339 338 341 340 351 3 12 350 20 250 261 248 268 273 303 268 293 323 253 181 168 202 176 198 214 197 230 207 233 237 268 275 325 282 281 284 221 208 207 213 198 207 213
341 339 340 336 341 342 353 72 84 308 300 230 243 254 254 268 288 275 295 180 174 213 191 235 223 212 225 188 214 236 248 267 294 267 164 277 279 279 211 215 206 205 203 215 223
338 339 338 336 340 340 345 65 337 353 268 306 237 244 264 168 238 258 162 185 186 214 219 221 225 215 177 246 228 227 217 260 245 311 214 267 286 277 277 217 199 214 217 220 217
335 336 337 338 347 334 316 335 334 336 35 284 333 288 250 212 270 234 225 180 197 204 217 229 231 213 194 240 181 255 209 248 265 53 274 128 276 296 281 303 196 226 214 219 225
332 334 333 336 305 304 311 326 336 99 354 268 301 294 297 193 280 319 158 153 211 222 132 238 199 197 216 230 163 246 197 213 251 251 117 215 149 259 333 304 289 288 203 220 220
330 330 328 330 297 297 329 331 17 47 264 313 345 329 340 296 286 315 78 48 165 191 245 251 241 199 216 219 192 241 321 43 51 81 306 244 181 239 210 225 278 274 274 217 203
329 326 321 297 259 316 330 9 36 135 340 331 341 331 327 314 319 14 347 156 162 121 267 277 217 242 184 209 106 132 57 316 329 347 239 248 198 236 220 221 227 255 264 240 194
328 327 322 291 257 315 337 52 123 272 278 303 340 317 314 343 335 329 7 339 283 126 120 198 296 207 191 178 196 186 163 170 242 268 281 33 241 260 244 267 255 239 240 184 172
333 333 323 352 131 146 71 67 212 227 286 346 321 336 322 330 330 348 2 33 19 96 202 153 271 299 165 212 156 216 161 199 150 45 89 260 288 314 306 290 309 250 171 183 173
335 327 307 203 138 76 71 234 243 231 327 322 262 338 330 306 15 10 360 342 354 341 251 226 270 243 291 347 210 172 177 155 98 274 251 272 276 247 298 306 327 286 181 149 110
351 5 340 175 135 49 123 238 269 248 233 239 234 264 245 278 273 330 306 301 8 321 354 340 98 295 234 170 246 268 143 52 103 145 197 236 270 218 256 289 75 14 68 85 82
9 357 74 139 33 25 179 209 277 297 306 253 240 210 225 290 308 314 306 231 336 309 336 312 124 267 264 268 223 188 212 165 184 246 200 193 263 345 273 92 110 97 65 78 84
14 269 11 180 226 308 290 283 251 296 299 331 318 349 332 325 356 314 337 292 351 335 320 303 14 354 343 2 10 277 211 159 115 58 195 150 262 347 1 114 166 126 119 114 117
46 358 321 44 22 106 344 279 311 292 272 337 270 40 1 330 344 339 335 314 328 304 197 59 65 135 254 259 278 278 252 183 146 123 162 226 280 54 270 184 221 126 147 151 157
68 272 192 304 333 348 268 289 325 335 309 358 336 32 308 318 357 338 297 320 326 303 15 91 275 213 257 260 267 312 312 207 118 176 131 269 244 354 31 355 335 7 343 137 152
115 33 351 289 316 327 334 359 314 328 303 330 16 315 20 104 194 269 312 228 246 313 358 321 305 31 301 283 1 31 20 8 62 83 101 12 22 333 77 49 27 24 2 345 333
276 328 113 273 326 355 204 324 294 334 281 56 341 349 5 269 253 251 234 242 246 285 285 294 24 8 302 298 336 349 342 28 67 17 122 27 339 43 72 66 51 39 29 9 343